Location: *
(47.8307°S, 178.3954°E)
Time: 08:32:28
(UTC+00:00)

Cosmos 1125 Rocket - Pass Details

Date: 12 August 2024
Orbit: 755 x 776 km, 74.0° (Epoch: 18 September)

Event Time Altitude Azimuth Distance (km) Brightness Sun altitude
Exits shadow 17:27:45 32° 259° (WSW) 1,306 4.1 -18.1°
Maximum altitude 17:28:40 34° 237° (WSW) 1,252 4.1 -17.9°
Drops below altitude 10° 17:33:32 10° 172° (S) 2,347 6.1 -17.1°
Sets 17:36:09 0° 162° (SSE) 3,284 7.0 -16.7°
